Time,TemperatureF,DewpointF,PressureIn,WindDirection,WindDirectionDegrees,WindSpeedMPH,WindSpeedGustMPH,Humidity,HourlyPrecipIn,Conditions,Clouds,dailyrainin,SoftwareType,DateUTC
2013-03-15 00:00:00,37.5,21.9,30.11,NNW,335,0.0,0.0,53,0.00,,---,0.00,VWS V14.01,2013-03-15 04:00:00,
2013-03-15 00:05:00,37.3,21.3,30.12,NNW,335,0.0,0.0,52,0.00,,---,0.00,VWS V14.01,2013-03-15 04:05:00,
2013-03-15 00:10:00,37.2,20.8,30.12,NNW,335,0.0,0.0,51,0.00,,---,0.00,VWS V14.01,2013-03-15 04:10:00,
2013-03-15 00:15:00,37.2,20.8,30.12,NNW,335,0.0,0.0,51,0.00,,---,0.00,VWS V14.01,2013-03-15 04:15:00,
2013-03-15 00:20:00,37.2,21.2,30.12,NNW,335,0.0,0.0,52,0.00,,---,0.00,VWS V14.01,2013-03-15 04:20:00,
2013-03-15 00:25:00,37.0,20.6,30.12,NNW,335,0.0,0.0,51,0.00,,---,0.00,VWS V14.01,2013-03-15 04:25:00,
2013-03-15 00:30:00,37.0,21.9,30.12,NNW,335,0.0,0.0,54,0.00,,---,0.00,VWS V14.01,2013-03-15 04:30:00,
2013-03-15 00:35:00,37.0,21.5,30.12,NNW,335,0.0,0.0,53,0.00,,---,0.00,VWS V14.01,2013-03-15 04:35:00,
2013-03-15 00:40:00,37.0,22.4,30.12,NNW,335,0.0,0.0,55,0.00,,---,0.00,VWS V14.01,2013-03-15 04:40:00,
2013-03-15 00:45:00,36.9,20.9,30.12,NNW,335,0.0,0.0,52,0.00,,---,0.00,VWS V14.01,2013-03-15 04:45:00,
2013-03-15 00:50:00,36.8,21.3,30.12,NNW,335,0.0,0.0,53,0.00,,---,0.00,VWS V14.01,2013-03-15 04:50:00,
2013-03-15 00:55:00,36.5,21.9,30.12,NNW,336,0.0,0.0,55,0.00,,---,0.00,VWS V14.01,2013-03-15 04:55:00,
2013-03-15 01:00:00,36.5,20.6,30.12,NNW,336,0.0,0.0,52,0.00,,---,0.00,VWS V14.01,2013-03-15 05:00:00,
2013-03-15 01:05:00,36.3,20.4,30.13,NNW,336,0.0,0.0,52,0.00,,---,0.00,VWS V14.01,2013-03-15 05:05:00,
2013-03-15 01:10:00,36.5,20.1,30.13,NNW,336,0.0,0.0,51,0.00,,---,0.00,VWS V14.01,2013-03-15 05:10:00,
2013-03-15 01:15:00,36.5,21.0,30.13,NNW,336,0.0,0.0,53,0.00,,---,0.00,VWS V14.01,2013-03-15 05:15:00,
2013-03-15 01:20:00,36.3,19.9,30.13,NNW,336,0.0,0.0,51,0.00,,---,0.00,VWS V14.01,2013-03-15 05:20:00,
2013-03-15 01:25:00,36.3,20.4,30.13,NNW,336,0.0,0.0,52,0.00,,---,0.00,VWS V14.01,2013-03-15 05:25:00,
2013-03-15 01:30:00,36.2,19.8,30.13,NNW,336,0.0,0.0,51,0.00,,---,0.00,VWS V14.01,2013-03-15 05:30:00,
2013-03-15 01:35:00,36.2,18.9,30.13,NNW,340,0.0,0.0,49,0.00,,---,0.00,VWS V14.01,2013-03-15 05:35:00,
2013-03-15 01:40:00,36.3,19.5,30.13,NNW,340,0.0,0.0,50,0.00,,---,0.00,VWS V14.01,2013-03-15 05:40:00,
2013-03-15 01:45:00,36.5,19.6,30.13,NNW,340,0.0,0.0,50,0.00,,---,0.00,VWS V14.01,2013-03-15 05:45:00,
2013-03-15 01:50:00,36.8,19.5,30.13,NNW,340,0.0,0.0,49,0.00,,---,0.00,VWS V14.01,2013-03-15 05:50:00,
2013-03-15 01:55:00,36.8,19.0,30.13,North,0,0.0,0.0,48,0.00,,---,0.00,VWS V14.01,2013-03-15 05:55:00,
2013-03-15 02:00:00,36.8,19.0,30.13,North,0,0.0,0.0,48,0.00,,---,0.00,VWS V14.01,2013-03-15 06:00:00,
2013-03-15 02:05:00,36.6,18.8,30.13,North,0,0.0,0.0,48,0.00,,---,0.00,VWS V14.01,2013-03-15 06:05:00,
2013-03-15 02:10:00,36.6,18.8,30.13,North,359,0.0,0.0,48,0.00,,---,0.00,VWS V14.01,2013-03-15 06:10:00,
2013-03-15 02:15:00,36.6,18.3,30.13,North,359,0.0,0.0,47,0.00,,---,0.00,VWS V14.01,2013-03-15 06:15:00,
2013-03-15 02:20:00,36.5,18.7,30.13,North,359,0.0,0.0,48,0.00,,---,0.00,VWS V14.01,2013-03-15 06:20:00,
2013-03-15 02:25:00,36.5,18.7,30.13,North,359,0.0,0.0,48,0.00,,---,0.00,VWS V14.01,2013-03-15 06:25:00,
2013-03-15 02:30:00,36.5,20.6,30.13,North,359,0.0,0.0,52,0.00,,---,0.00,VWS V14.01,2013-03-15 06:30:00,
2013-03-15 02:35:00,36.3,19.9,30.13,North,359,0.0,0.0,51,0.00,,---,0.00,VWS V14.01,2013-03-15 06:35:00,
2013-03-15 02:40:00,36.0,20.1,30.13,North,359,0.0,0.0,52,0.00,,---,0.00,VWS V14.01,2013-03-15 06:40:00,
2013-03-15 02:45:00,35.9,20.0,30.13,North,359,0.0,0.0,52,0.00,,---,0.00,VWS V14.01,2013-03-15 06:45:00,
2013-03-15 02:50:00,35.8,21.2,30.12,North,359,0.0,0.0,55,0.00,,---,0.00,VWS V14.01,2013-03-15 06:50:00,
2013-03-15 02:55:00,35.5,21.4,30.12,North,359,0.0,0.0,56,0.00,,---,0.00,VWS V14.01,2013-03-15 06:55:00,
2013-03-15 03:00:00,35.3,21.2,30.12,North,359,0.0,0.0,56,0.00,,---,0.00,VWS V14.01,2013-03-15 07:00:00,
2013-03-15 03:05:00,35.0,20.9,30.12,North,359,0.0,0.0,56,0.00,,---,0.00,VWS V14.01,2013-03-15 07:05:00,
2013-03-15 03:10:00,34.7,20.6,30.12,North,359,0.0,0.0,56,0.00,,---,0.00,VWS V14.01,2013-03-15 07:10:00,
2013-03-15 03:15:00,34.4,20.8,30.12,North,359,0.0,0.0,57,0.00,,---,0.00,VWS V14.01,2013-03-15 07:15:00,
2013-03-15 03:20:00,34.1,20.1,30.12,North,359,0.0,0.0,56,0.00,,---,0.00,VWS V14.01,2013-03-15 07:20:00,
2013-03-15 03:25:00,34.0,20.4,30.12,North,359,0.0,0.0,57,0.00,,---,0.00,VWS V14.01,2013-03-15 07:25:00,
2013-03-15 03:30:00,33.7,20.5,30.12,North,359,0.0,0.0,58,0.00,,---,0.00,VWS V14.01,2013-03-15 07:30:00,
2013-03-15 03:35:00,33.7,20.5,30.12,North,359,0.0,0.0,58,0.00,,---,0.00,VWS V14.01,2013-03-15 07:35:00,
2013-03-15 03:40:00,33.5,20.7,30.12,North,359,0.0,0.0,59,0.00,,---,0.00,VWS V14.01,2013-03-15 07:40:00,
2013-03-15 03:44:00,33.4,20.6,30.12,North,359,0.0,0.0,59,0.00,,---,0.00,VWS V14.01,2013-03-15 07:44:00,
2013-03-15 03:45:00,33.4,20.2,30.11,North,359,0.0,0.0,58,0.00,,---,0.00,VWS V14.01,2013-03-15 07:45:00,
2013-03-15 03:50:00,33.4,19.8,30.11,North,359,0.0,0.0,57,0.00,,---,0.00,VWS V14.01,2013-03-15 07:50:00,
2013-03-15 03:54:00,33.2,20.4,30.11,North,359,0.0,0.0,59,0.00,,---,0.00,VWS V14.01,2013-03-15 07:54:00,
2013-03-15 03:55:00,33.2,20.4,30.11,North,359,0.0,0.0,59,0.00,,---,0.00,VWS V14.01,2013-03-15 07:55:00,
2013-03-15 03:59:00,33.2,20.4,30.11,North,359,0.0,0.0,59,0.00,,---,0.00,VWS V14.01,2013-03-15 07:59:00,
2013-03-15 04:00:00,33.1,20.3,30.10,North,359,0.0,0.0,59,0.00,,---,0.00,VWS V14.01,2013-03-15 08:00:00,
2013-03-15 04:04:00,33.1,20.4,30.10,North,359,0.0,0.0,59,0.00,,---,0.00,VWS V14.01,2013-03-15 08:04:00,
2013-03-15 04:05:00,32.9,20.2,30.10,North,359,0.0,0.0,59,0.00,,---,0.00,VWS V14.01,2013-03-15 08:05:00,
2013-03-15 04:09:00,32.8,20.9,30.10,North,359,0.0,0.0,61,0.00,,---,0.00,VWS V14.01,2013-03-15 08:09:00,
2013-03-15 04:10:00,32.8,20.8,30.10,North,359,0.0,0.0,61,0.00,,---,0.00,VWS V14.01,2013-03-15 08:10:00,
2013-03-15 04:14:00,32.7,20.8,30.10,North,359,0.0,0.0,61,0.00,,---,0.00,VWS V14.01,2013-03-15 08:14:00,
2013-03-15 04:15:00,32.7,20.8,30.10,North,359,0.0,0.0,61,0.00,,---,0.00,VWS V14.01,2013-03-15 08:15:00,
2013-03-15 04:19:00,32.5,20.2,30.10,North,359,0.0,0.0,60,0.00,,---,0.00,VWS V14.01,2013-03-15 08:19:00,
2013-03-15 04:20:00,32.5,19.8,30.10,North,359,0.0,0.0,59,0.00,,---,0.00,VWS V14.01,2013-03-15 08:20:00,
2013-03-15 04:24:00,32.5,20.2,30.10,North,359,0.0,0.0,60,0.00,,---,0.00,VWS V14.01,2013-03-15 08:24:00,
2013-03-15 04:25:00,32.7,20.4,30.10,North,359,0.0,0.0,60,0.00,,---,0.00,VWS V14.01,2013-03-15 08:25:00,
2013-03-15 04:29:00,32.7,20.8,30.10,North,359,0.0,0.0,61,0.00,,---,0.00,VWS V14.01,2013-03-15 08:29:00,
2013-03-15 04:30:00,32.7,20.4,30.10,North,359,0.0,0.0,60,0.00,,---,0.00,VWS V14.01,2013-03-15 08:30:00,
2013-03-15 04:34:00,32.5,20.6,30.10,North,359,0.0,0.0,61,0.00,,---,0.00,VWS V14.01,2013-03-15 08:34:00,
2013-03-15 04:35:00,32.5,20.2,30.10,North,359,0.0,0.0,60,0.00,,---,0.00,VWS V14.01,2013-03-15 08:35:00,
2013-03-15 04:39:00,32.5,20.2,30.10,North,359,0.0,0.0,60,0.00,,---,0.00,VWS V14.01,2013-03-15 08:39:00,
2013-03-15 04:40:00,32.5,19.8,30.10,North,359,0.0,0.0,59,0.00,,---,0.00,VWS V14.01,2013-03-15 08:40:00,
2013-03-15 04:44:00,32.5,19.4,30.10,North,359,0.0,0.0,58,0.00,,---,0.00,VWS V14.01,2013-03-15 08:44:00,
2013-03-15 04:45:00,32.5,18.6,30.10,North,359,0.0,0.0,56,0.00,,---,0.00,VWS V14.01,2013-03-15 08:45:00,
2013-03-15 04:49:00,32.5,19.0,30.10,North,359,0.0,0.0,57,0.00,,---,0.00,VWS V14.01,2013-03-15 08:49:00,
2013-03-15 04:50:00,32.5,19.0,30.10,North,359,0.0,0.0,57,0.00,,---,0.00,VWS V14.01,2013-03-15 08:50:00,
2013-03-15 04:54:00,32.5,19.8,30.10,North,359,0.0,0.0,59,0.00,,---,0.00,VWS V14.01,2013-03-15 08:54:00,
2013-03-15 04:55:00,32.5,19.8,30.10,North,359,0.0,0.0,59,0.00,,---,0.00,VWS V14.01,2013-03-15 08:55:00,
2013-03-15 04:59:00,32.5,19.8,30.10,North,359,0.0,0.0,59,0.00,,---,0.00,VWS V14.01,2013-03-15 08:59:00,
2013-03-15 05:00:00,32.5,19.8,30.10,North,359,0.0,0.0,59,0.00,,---,0.00,VWS V14.01,2013-03-15 09:00:00,
2013-03-15 05:04:00,32.5,19.4,30.10,North,359,0.0,0.0,58,0.00,,---,0.00,VWS V14.01,2013-03-15 09:04:00,
2013-03-15 05:05:00,32.5,19.8,30.10,North,359,0.0,0.0,59,0.00,,---,0.00,VWS V14.01,2013-03-15 09:05:00,
2013-03-15 05:09:00,32.7,19.6,30.10,North,359,0.0,0.0,58,0.00,,---,0.00,VWS V14.01,2013-03-15 09:09:00,
2013-03-15 05:10:00,32.7,20.4,30.10,North,359,0.0,0.0,60,0.00,,---,0.00,VWS V14.01,2013-03-15 09:10:00,
2013-03-15 05:14:00,32.5,19.8,30.10,North,359,0.0,0.0,59,0.00,,---,0.00,VWS V14.01,2013-03-15 09:14:00,
2013-03-15 05:15:00,32.5,19.8,30.11,North,359,0.0,0.0,59,0.00,,---,0.00,VWS V14.01,2013-03-15 09:15:00,
2013-03-15 05:19:00,32.5,19.4,30.11,North,359,0.0,0.0,58,0.00,,---,0.00,VWS V14.01,2013-03-15 09:19:00,
2013-03-15 05:20:00,32.5,19.4,30.11,North,359,0.0,0.0,58,0.00,,---,0.00,VWS V14.01,2013-03-15 09:20:00,
2013-03-15 05:24:00,32.5,19.0,30.11,North,359,0.0,0.0,57,0.00,,---,0.00,VWS V14.01,2013-03-15 09:24:00,
2013-03-15 05:25:00,32.5,19.0,30.11,North,359,0.0,0.0,57,0.00,,---,0.00,VWS V14.01,2013-03-15 09:25:00,
2013-03-15 05:29:00,32.4,19.3,30.11,North,359,0.0,0.0,58,0.00,,---,0.00,VWS V14.01,2013-03-15 09:29:00,
2013-03-15 05:30:00,32.4,19.7,30.11,North,359,0.0,0.0,59,0.00,,---,0.00,VWS V14.01,2013-03-15 09:30:00,
2013-03-15 05:34:00,32.4,19.7,30.11,North,359,0.0,0.0,59,0.00,,---,0.00,VWS V14.01,2013-03-15 09:34:00,
2013-03-15 05:35:00,32.4,20.1,30.11,North,359,0.0,0.0,60,0.00,,---,0.00,VWS V14.01,2013-03-15 09:35:00,
2013-03-15 05:39:00,32.2,19.5,30.11,North,359,0.0,0.0,59,0.00,,---,0.00,VWS V14.01,2013-03-15 09:39:00,
2013-03-15 05:40:00,32.2,19.5,30.11,North,359,0.0,0.0,59,0.00,,---,0.00,VWS V14.01,2013-03-15 09:40:00,
2013-03-15 05:44:00,32.1,19.4,30.11,North,359,0.0,0.0,59,0.00,,---,0.00,VWS V14.01,2013-03-15 09:44:00,
2013-03-15 05:45:00,32.1,20.2,30.11,North,359,0.0,0.0,61,0.00,,---,0.00,VWS V14.01,2013-03-15 09:45:00,
2013-03-15 05:49:00,31.9,19.6,30.11,North,359,0.0,0.0,60,0.00,,---,0.00,VWS V14.01,2013-03-15 09:49:00,
2013-03-15 05:50:00,31.9,20.0,30.11,North,359,0.0,0.0,61,0.00,,---,0.00,VWS V14.01,2013-03-15 09:50:00,
2013-03-15 05:54:00,31.8,19.9,30.11,North,359,0.0,0.0,61,0.00,,---,0.00,VWS V14.01,2013-03-15 09:54:00,
2013-03-15 05:55:00,31.8,19.9,30.11,North,359,0.0,0.0,61,0.00,,---,0.00,VWS V14.01,2013-03-15 09:55:00,
2013-03-15 05:59:00,31.6,20.5,30.11,North,359,0.0,0.0,63,0.00,,---,0.00,VWS V14.01,2013-03-15 09:59:00,
2013-03-15 06:00:00,31.6,20.5,30.12,North,359,0.0,0.0,63,0.00,,---,0.00,VWS V14.01,2013-03-15 10:00:00,
2013-03-15 06:04:00,31.6,19.3,30.12,North,359,0.0,0.0,60,0.00,,---,0.00,VWS V14.01,2013-03-15 10:04:00,
2013-03-15 06:05:00,31.6,19.3,30.12,North,359,0.0,0.0,60,0.00,,---,0.00,VWS V14.01,2013-03-15 10:05:00,
2013-03-15 06:09:00,31.6,19.7,30.12,North,359,0.0,0.0,61,0.00,,---,0.00,VWS V14.01,2013-03-15 10:09:00,
2013-03-15 06:10:00,31.6,19.7,30.12,North,359,0.0,0.0,61,0.00,,---,0.00,VWS V14.01,2013-03-15 10:10:00,
2013-03-15 06:14:00,31.5,19.6,30.12,North,359,0.0,0.0,61,0.00,,---,0.00,VWS V14.01,2013-03-15 10:14:00,
2013-03-15 06:15:00,31.5,19.2,30.12,North,359,0.0,0.0,60,0.00,,---,0.00,VWS V14.01,2013-03-15 10:15:00,
2013-03-15 06:19:00,31.5,19.6,30.12,North,359,0.0,0.0,61,0.00,,---,0.00,VWS V14.01,2013-03-15 10:19:00,
2013-03-15 06:20:00,31.5,19.6,30.12,North,359,0.0,0.0,61,0.00,,---,0.00,VWS V14.01,2013-03-15 10:20:00,
2013-03-15 06:24:00,31.5,18.8,30.12,North,359,0.0,0.0,59,0.00,,---,0.00,VWS V14.01,2013-03-15 10:24:00,
2013-03-15 06:25:00,31.5,19.2,30.12,North,359,0.0,0.0,60,0.00,,---,0.00,VWS V14.01,2013-03-15 10:25:00,
2013-03-15 06:29:00,31.5,19.2,30.12,North,359,0.0,0.0,60,0.00,,---,0.00,VWS V14.01,2013-03-15 10:29:00,
2013-03-15 06:30:00,31.5,19.2,30.12,North,359,0.0,0.0,60,0.00,,---,0.00,VWS V14.01,2013-03-15 10:30:00,
2013-03-15 06:34:00,31.3,19.0,30.12,North,359,0.0,0.0,60,0.00,,---,0.00,VWS V14.01,2013-03-15 10:34:00,
2013-03-15 06:39:00,31.3,19.0,30.12,North,359,0.0,0.0,60,0.00,,---,0.00,VWS V14.01,2013-03-15 10:39:00,
2013-03-15 06:40:00,31.3,19.0,30.12,North,359,0.0,0.0,60,0.00,,---,0.00,VWS V14.01,2013-03-15 10:40:00,
2013-03-15 06:44:00,31.3,19.8,30.12,North,359,0.0,0.0,62,0.00,,---,0.00,VWS V14.01,2013-03-15 10:44:00,
2013-03-15 06:45:00,31.3,19.8,30.12,North,359,0.0,0.0,62,0.00,,---,0.00,VWS V14.01,2013-03-15 10:45:00,
2013-03-15 06:49:00,31.2,19.0,30.12,North,359,0.0,0.0,60,0.00,,---,0.00,VWS V14.01,2013-03-15 10:49:00,
2013-03-15 06:50:00,31.2,19.3,30.12,North,359,0.0,0.0,61,0.00,,---,0.00,VWS V14.01,2013-03-15 10:50:00,
2013-03-15 06:54:00,31.2,19.3,30.12,North,359,0.0,0.0,61,0.00,,---,0.00,VWS V14.01,2013-03-15 10:54:00,
2013-03-15 06:55:00,31.2,19.0,30.12,North,359,0.0,0.0,60,0.00,,---,0.00,VWS V14.01,2013-03-15 10:55:00,
2013-03-15 06:59:00,31.2,19.0,30.12,North,359,0.0,0.0,60,0.00,,---,0.00,VWS V14.01,2013-03-15 10:59:00,
2013-03-15 07:00:00,31.2,19.0,30.12,North,359,0.0,0.0,60,0.00,,---,0.00,VWS V14.01,2013-03-15 11:00:00,
2013-03-15 07:04:00,31.2,19.0,30.12,North,359,0.0,0.0,60,0.00,,---,0.00,VWS V14.01,2013-03-15 11:04:00,
2013-03-15 07:05:00,31.2,19.0,30.12,North,359,0.0,0.0,60,0.00,,---,0.00,VWS V14.01,2013-03-15 11:05:00,
2013-03-15 07:09:00,31.2,19.0,30.12,North,359,0.0,0.0,60,0.00,,---,0.00,VWS V14.01,2013-03-15 11:09:00,
2013-03-15 07:10:00,31.2,19.0,30.12,North,359,0.0,0.0,60,0.00,,---,0.00,VWS V14.01,2013-03-15 11:10:00,
2013-03-15 07:14:00,31.2,19.0,30.12,North,359,0.0,0.0,60,0.00,,---,0.00,VWS V14.01,2013-03-15 11:14:00,
2013-03-15 07:15:00,31.2,19.0,30.12,North,359,0.0,0.0,60,0.00,,---,0.00,VWS V14.01,2013-03-15 11:15:00,
2013-03-15 07:19:00,31.2,19.0,30.12,North,359,0.0,0.0,60,0.00,,---,0.00,VWS V14.01,2013-03-15 11:19:00,
2013-03-15 07:20:00,31.2,19.0,30.12,North,359,0.0,0.0,60,0.00,,---,0.00,VWS V14.01,2013-03-15 11:20:00,
2013-03-15 07:24:00,31.2,19.0,30.12,North,359,0.0,0.0,60,0.00,,---,0.00,VWS V14.01,2013-03-15 11:24:00,
2013-03-15 07:25:00,31.2,18.6,30.12,North,359,0.0,0.0,59,0.00,,---,0.00,VWS V14.01,2013-03-15 11:25:00,
2013-03-15 07:29:00,31.2,18.5,30.12,North,359,0.0,0.0,59,0.00,,---,0.00,VWS V14.01,2013-03-15 11:29:00,
2013-03-15 07:30:00,31.3,18.6,30.12,North,359,0.0,0.0,59,0.00,,---,0.00,VWS V14.01,2013-03-15 11:30:00,
2013-03-15 07:34:00,31.3,18.6,30.12,North,359,0.0,0.0,59,0.00,,---,0.00,VWS V14.01,2013-03-15 11:34:00,
2013-03-15 07:35:00,31.3,18.6,30.12,North,359,0.0,0.0,59,0.00,,---,0.00,VWS V14.01,2013-03-15 11:35:00,
2013-03-15 07:39:00,31.3,18.6,30.12,North,359,0.0,0.0,59,0.00,,---,0.00,VWS V14.01,2013-03-15 11:39:00,
2013-03-15 07:40:00,31.3,19.0,30.12,North,359,0.0,0.0,60,0.00,,---,0.00,VWS V14.01,2013-03-15 11:40:00,
2013-03-15 07:44:00,31.5,19.2,30.12,North,359,0.0,0.0,60,0.00,,---,0.00,VWS V14.01,2013-03-15 11:44:00,
2013-03-15 07:45:00,31.5,19.2,30.12,North,359,0.0,0.0,60,0.00,,---,0.00,VWS V14.01,2013-03-15 11:45:00,
2013-03-15 07:49:00,31.5,19.2,30.12,North,359,0.0,0.0,60,0.00,,---,0.00,VWS V14.01,2013-03-15 11:49:00,
2013-03-15 07:50:00,31.5,19.2,30.12,North,359,0.0,0.0,60,0.00,,---,0.00,VWS V14.01,2013-03-15 11:50:00,
2013-03-15 07:54:00,31.5,18.8,30.12,North,359,0.0,0.0,59,0.00,,---,0.00,VWS V14.01,2013-03-15 11:54:00,
2013-03-15 07:55:00,31.5,18.8,30.12,North,359,0.0,0.0,59,0.00,,---,0.00,VWS V14.01,2013-03-15 11:55:00,
2013-03-15 07:59:00,31.6,19.3,30.12,North,359,0.0,0.0,60,0.00,,---,0.00,VWS V14.01,2013-03-15 11:59:00,
2013-03-15 08:00:00,31.6,18.9,30.12,North,359,0.0,0.0,59,0.00,,---,0.00,VWS V14.01,2013-03-15 12:00:00,
2013-03-15 08:04:00,31.8,19.1,30.12,North,359,0.0,0.0,59,0.00,,---,0.00,VWS V14.01,2013-03-15 12:04:00,
2013-03-15 08:05:00,31.8,19.1,30.12,North,359,0.0,0.0,59,0.00,,---,0.00,VWS V14.01,2013-03-15 12:05:00,
2013-03-15 08:09:00,31.9,19.6,30.12,North,359,0.0,0.0,60,0.00,,---,0.00,VWS V14.01,2013-03-15 12:09:00,
2013-03-15 08:10:00,31.9,19.6,30.12,North,359,0.0,0.0,60,0.00,,---,0.00,VWS V14.01,2013-03-15 12:10:00,
2013-03-15 08:14:00,32.1,19.8,30.12,North,359,0.0,0.0,60,0.00,,---,0.00,VWS V14.01,2013-03-15 12:14:00,
2013-03-15 08:15:00,32.1,19.8,30.12,North,359,0.0,0.0,60,0.00,,---,0.00,VWS V14.01,2013-03-15 12:15:00,
2013-03-15 08:19:00,32.2,19.9,30.12,North,359,0.0,0.0,60,0.00,,---,0.00,VWS V14.01,2013-03-15 12:19:00,
2013-03-15 08:20:00,32.4,20.1,30.12,North,359,0.0,0.0,60,0.00,,---,0.00,VWS V14.01,2013-03-15 12:20:00,
2013-03-15 08:24:00,32.4,19.7,30.12,North,359,0.0,0.0,59,0.00,,---,0.00,VWS V14.01,2013-03-15 12:24:00,
2013-03-15 08:25:00,32.5,20.6,30.12,North,359,0.0,0.0,61,0.00,,---,0.00,VWS V14.01,2013-03-15 12:25:00,
2013-03-15 08:29:00,32.7,20.4,30.12,North,359,0.0,0.0,60,0.00,,---,0.00,VWS V14.01,2013-03-15 12:29:00,
2013-03-15 08:30:00,32.7,20.4,30.12,North,359,0.0,0.0,60,0.00,,---,0.00,VWS V14.01,2013-03-15 12:30:00,
2013-03-15 08:34:00,32.9,20.5,30.12,North,359,0.0,0.0,60,0.00,,---,0.00,VWS V14.01,2013-03-15 12:34:00,
2013-03-15 08:35:00,33.1,20.7,30.12,North,359,0.0,0.0,60,0.00,,---,0.00,VWS V14.01,2013-03-15 12:35:00,
2013-03-15 08:39:00,33.2,20.8,30.12,North,359,0.0,0.0,60,0.00,,---,0.00,VWS V14.01,2013-03-15 12:39:00,
2013-03-15 08:40:00,33.4,21.4,30.12,North,359,0.0,0.0,61,0.00,,---,0.00,VWS V14.01,2013-03-15 12:40:00,
2013-03-15 08:44:00,33.5,20.3,30.12,North,359,0.0,0.0,58,0.00,,---,0.00,VWS V14.01,2013-03-15 12:44:00,
2013-03-15 08:45:00,33.7,19.7,30.14,North,359,0.0,0.0,56,0.00,,---,0.00,VWS V14.01,2013-03-15 12:45:00,
2013-03-15 08:49:00,33.8,19.8,30.14,North,359,0.0,0.0,56,0.00,,---,0.00,VWS V14.01,2013-03-15 12:49:00,
2013-03-15 08:50:00,34.1,20.1,30.14,North,359,0.0,0.0,56,0.00,,---,0.00,VWS V14.01,2013-03-15 12:50:00,
2013-03-15 08:54:00,34.4,19.9,30.14,North,359,0.0,0.0,55,0.00,,---,0.00,VWS V14.01,2013-03-15 12:54:00,
2013-03-15 08:55:00,34.7,20.2,30.14,North,359,0.0,0.0,55,0.00,,---,0.00,VWS V14.01,2013-03-15 12:55:00,
2013-03-15 08:59:00,35.2,20.7,30.14,North,359,0.0,0.0,55,0.00,,---,0.00,VWS V14.01,2013-03-15 12:59:00,
2013-03-15 09:00:00,35.5,21.0,30.13,North,359,0.0,1.0,55,0.00,,---,0.00,VWS V14.01,2013-03-15 13:00:00,
2013-03-15 09:04:00,36.0,20.5,30.13,North,359,0.0,0.0,53,0.00,,---,0.00,VWS V14.01,2013-03-15 13:04:00,
2013-03-15 09:05:00,36.3,20.8,30.13,North,359,0.0,0.0,53,0.00,,---,0.00,VWS V14.01,2013-03-15 13:05:00,
2013-03-15 09:09:00,36.9,21.4,30.13,North,359,0.0,0.0,53,0.00,,---,0.00,VWS V14.01,2013-03-15 13:09:00,
2013-03-15 09:10:00,37.3,21.3,30.13,North,359,0.0,0.0,52,0.00,,---,0.00,VWS V14.01,2013-03-15 13:10:00,
2013-03-15 09:14:00,37.8,21.3,30.13,North,359,0.0,0.0,51,0.00,,---,0.00,VWS V14.01,2013-03-15 13:14:00,
2013-03-15 09:15:00,38.2,20.2,30.13,North,359,0.0,0.0,48,0.00,,---,0.00,VWS V14.01,2013-03-15 13:15:00,
2013-03-15 09:19:00,38.8,21.3,30.13,North,359,0.0,0.0,49,0.00,,---,0.00,VWS V14.01,2013-03-15 13:19:00,
2013-03-15 09:20:00,39.1,21.6,30.13,North,359,0.0,0.0,49,0.00,,---,0.00,VWS V14.01,2013-03-15 13:20:00,
2013-03-15 09:24:00,39.6,21.5,30.13,North,359,0.0,0.0,48,0.00,,---,0.00,VWS V14.01,2013-03-15 13:24:00,
2013-03-15 09:25:00,39.9,20.8,30.13,North,359,0.0,0.0,46,0.00,,---,0.00,VWS V14.01,2013-03-15 13:25:00,
2013-03-15 09:29:00,40.6,21.5,30.13,North,359,0.0,1.0,46,0.00,,---,0.00,VWS V14.01,2013-03-15 13:29:00,
2013-03-15 09:30:00,41.1,21.4,30.12,North,359,0.0,1.0,45,0.00,,---,0.00,VWS V14.01,2013-03-15 13:30:00,
2013-03-15 09:34:00,41.8,21.0,30.12,North,359,0.0,2.0,43,0.00,,---,0.00,VWS V14.01,2013-03-15 13:34:00,
2013-03-15 09:35:00,42.1,20.7,30.12,North,359,0.0,2.0,42,0.00,,---,0.00,VWS V14.01,2013-03-15 13:35:00,
2013-03-15 09:39:00,42.6,20.6,30.12,North,356,0.0,0.0,41,0.00,,---,0.00,VWS V14.01,2013-03-15 13:39:00,
2013-03-15 09:40:00,42.8,20.8,30.12,North,356,0.0,0.0,41,0.00,,---,0.00,VWS V14.01,2013-03-15 13:40:00,
2013-03-15 09:44:00,43.3,21.2,30.12,North,353,0.0,0.0,41,0.00,,---,0.00,VWS V14.01,2013-03-15 13:44:00,
2013-03-15 09:45:00,43.5,20.2,30.13,North,353,0.0,0.0,39,0.00,,---,0.00,VWS V14.01,2013-03-15 13:45:00,
2013-03-15 09:49:00,43.8,19.2,30.13,North,10,0.0,3.0,37,0.00,,---,0.00,VWS V14.01,2013-03-15 13:49:00,
2013-03-15 09:50:00,43.9,19.3,30.13,North,10,0.0,3.0,37,0.00,,---,0.00,VWS V14.01,2013-03-15 13:50:00,
2013-03-15 09:54:00,44.3,20.3,30.13,NE,35,0.0,0.0,38,0.00,,---,0.00,VWS V14.01,2013-03-15 13:54:00,
2013-03-15 09:55:00,44.5,19.2,30.13,NE,35,0.0,0.0,36,0.00,,---,0.00,VWS V14.01,2013-03-15 13:55:00,
2013-03-15 09:59:00,44.9,18.9,30.13,NE,35,0.0,0.0,35,0.00,,---,0.00,VWS V14.01,2013-03-15 13:59:00,
2013-03-15 10:00:00,45.1,19.1,30.13,NE,35,0.0,0.0,35,0.00,,---,0.00,VWS V14.01,2013-03-15 14:00:00,
2013-03-15 10:04:00,45.4,19.4,30.13,SSE,165,0.0,0.0,35,0.00,,---,0.00,VWS V14.01,2013-03-15 14:04:00,
2013-03-15 10:05:00,45.7,19.0,30.13,SSE,162,0.0,0.0,34,0.00,,---,0.00,VWS V14.01,2013-03-15 14:05:00,
2013-03-15 10:09:00,45.8,18.4,30.13,ENE,72,0.0,0.0,33,0.00,,---,0.00,VWS V14.01,2013-03-15 14:09:00,
2013-03-15 10:10:00,45.8,16.9,30.13,NNW,344,0.0,0.0,31,0.00,,---,0.00,VWS V14.01,2013-03-15 14:10:00,
2013-03-15 10:14:00,45.5,16.6,30.13,NNW,328,1.0,3.0,31,0.00,,---,0.00,VWS V14.01,2013-03-15 14:14:00,
2013-03-15 10:15:00,45.5,16.6,30.12,NW,323,3.0,3.0,31,0.00,,---,0.00,VWS V14.01,2013-03-15 14:15:00,
2013-03-15 10:19:00,45.5,17.4,30.12,North,0,0.0,3.0,32,0.00,,---,0.00,VWS V14.01,2013-03-15 14:19:00,
2013-03-15 10:20:00,45.7,18.3,30.12,North,0,0.0,3.0,33,0.00,,---,0.00,VWS V14.01,2013-03-15 14:20:00,
2013-03-15 10:24:00,46.0,19.2,30.12,North,0,3.0,3.0,34,0.00,,---,0.00,VWS V14.01,2013-03-15 14:24:00,
2013-03-15 10:25:00,46.2,17.2,30.12,NNW,336,0.0,3.0,31,0.00,,---,0.00,VWS V14.01,2013-03-15 14:25:00,
2013-03-15 10:29:00,46.7,18.4,30.12,NNW,335,0.0,0.0,32,0.00,,---,0.00,VWS V14.01,2013-03-15 14:29:00,
2013-03-15 10:30:00,47.0,18.7,30.12,NNW,333,0.0,0.0,32,0.00,,---,0.00,VWS V14.01,2013-03-15 14:30:00,
2013-03-15 10:34:00,47.4,18.3,30.12,NNE,31,0.0,3.0,31,0.00,,---,0.00,VWS V14.01,2013-03-15 14:34:00,
2013-03-15 10:35:00,47.7,18.6,30.12,North,359,0.0,3.0,31,0.00,,---,0.00,VWS V14.01,2013-03-15 14:35:00,
2013-03-15 10:39:00,47.9,17.2,30.12,SE,131,2.0,6.0,29,0.00,,---,0.00,VWS V14.01,2013-03-15 14:39:00,
2013-03-15 10:40:00,48.0,18.8,30.12,ESE,121,0.0,6.0,31,0.00,,---,0.00,VWS V14.01,2013-03-15 14:40:00,
2013-03-15 10:44:00,48.5,18.5,30.12,ESE,123,0.0,2.0,30,0.00,,---,0.00,VWS V14.01,2013-03-15 14:44:00,
2013-03-15 10:45:00,48.6,17.8,30.10,ESE,120,0.0,2.0,29,0.00,,---,0.00,VWS V14.01,2013-03-15 14:45:00,
2013-03-15 10:49:00,49.1,19.0,30.10,SE,124,0.0,0.0,30,0.00,,---,0.00,VWS V14.01,2013-03-15 14:49:00,
2013-03-15 10:50:00,49.2,18.3,30.10,NE,44,0.0,0.0,29,0.00,,---,0.00,VWS V14.01,2013-03-15 14:50:00,
2013-03-15 10:54:00,49.6,18.7,30.10,NE,41,0.0,0.0,29,0.00,,---,0.00,VWS V14.01,2013-03-15 14:54:00,
2013-03-15 10:55:00,49.8,18.8,30.10,West,274,0.0,0.0,29,0.00,,---,0.00,VWS V14.01,2013-03-15 14:55:00,
2013-03-15 10:59:00,50.1,18.3,30.10,SSE,152,0.0,4.0,28,0.00,,---,0.00,VWS V14.01,2013-03-15 14:59:00,
2013-03-15 11:00:00,50.1,17.4,30.10,SE,124,0.0,5.0,27,0.00,,---,0.00,VWS V14.01,2013-03-15 15:00:00,
2013-03-15 11:04:00,50.2,17.5,30.10,South,174,1.0,7.0,27,0.00,,---,0.00,VWS V14.01,2013-03-15 15:04:00,
2013-03-15 11:05:00,50.4,17.7,30.10,SW,215,0.0,7.0,27,0.00,,---,0.00,VWS V14.01,2013-03-15 15:05:00,
2013-03-15 11:09:00,50.7,18.8,30.10,NNE,17,0.0,1.0,28,0.00,,---,0.00,VWS V14.01,2013-03-15 15:09:00,
2013-03-15 11:10:00,50.8,18.9,30.10,ENE,69,0.0,2.0,28,0.00,,---,0.00,VWS V14.01,2013-03-15 15:10:00,
2013-03-15 11:14:00,51.1,19.1,30.10,East,92,0.0,3.0,28,0.00,,---,0.00,VWS V14.01,2013-03-15 15:14:00,
2013-03-15 11:15:00,51.3,19.3,30.10,ESE,109,3.0,5.0,28,0.00,,---,0.00,VWS V14.01,2013-03-15 15:15:00,
2013-03-15 11:19:00,51.4,19.4,30.10,North,11,0.0,3.0,28,0.00,,---,0.00,VWS V14.01,2013-03-15 15:19:00,
2013-03-15 11:20:00,51.6,18.7,30.10,NNE,31,0.0,3.0,27,0.00,,---,0.00,VWS V14.01,2013-03-15 15:20:00,
2013-03-15 11:24:00,51.7,19.7,30.10,NNW,347,3.0,3.0,28,0.00,,---,0.00,VWS V14.01,2013-03-15 15:24:00,
2013-03-15 11:25:00,51.7,19.7,30.10,North,0,0.0,3.0,28,0.00,,---,0.00,VWS V14.01,2013-03-15 15:25:00,
2013-03-15 11:29:00,51.6,18.7,30.10,North,4,0.0,5.0,27,0.00,,---,0.00,VWS V14.01,2013-03-15 15:29:00,
2013-03-15 11:30:00,51.6,18.7,30.09,East,79,0.0,5.0,27,0.00,,---,0.00,VWS V14.01,2013-03-15 15:30:00,
2013-03-15 11:34:00,51.7,18.8,30.09,South,186,3.0,5.0,27,0.00,,---,0.00,VWS V14.01,2013-03-15 15:34:00,
2013-03-15 11:35:00,52.0,19.1,30.09,SSW,192,0.0,7.0,27,0.00,,---,0.00,VWS V14.01,2013-03-15 15:35:00,
2013-03-15 11:39:00,52.5,19.5,30.09,SW,217,0.0,3.0,27,0.00,,---,0.00,VWS V14.01,2013-03-15 15:39:00,
2013-03-15 11:40:00,52.8,19.8,30.09,SE,128,0.0,6.0,27,0.00,,---,0.00,VWS V14.01,2013-03-15 15:40:00,
2013-03-15 11:44:00,53.1,20.0,30.09,North,354,0.0,1.0,27,0.00,,---,0.00,VWS V14.01,2013-03-15 15:44:00,
2013-03-15 11:45:00,52.9,19.9,30.08,NNW,339,0.0,1.0,27,0.00,,---,0.00,VWS V14.01,2013-03-15 15:45:00,
2013-03-15 11:49:00,53.2,21.0,30.08,North,4,0.0,0.0,28,0.00,,---,0.00,VWS V14.01,2013-03-15 15:49:00,
2013-03-15 11:50:00,53.3,21.0,30.08,ENE,78,0.0,0.0,28,0.00,,---,0.00,VWS V14.01,2013-03-15 15:50:00,
2013-03-15 11:54:00,53.5,21.2,30.08,North,349,0.0,2.0,28,0.00,,---,0.00,VWS V14.01,2013-03-15 15:54:00,
2013-03-15 11:55:00,53.5,21.2,30.08,North,349,0.0,2.0,28,0.00,,---,0.00,VWS V14.01,2013-03-15 15:55:00,
2013-03-15 11:59:00,53.8,21.5,30.08,NE,40,0.0,0.0,28,0.00,,---,0.00,VWS V14.01,2013-03-15 15:59:00,
2013-03-15 12:00:00,54.2,21.8,30.06,NE,40,0.0,0.0,28,0.00,,---,0.00,VWS V14.01,2013-03-15 16:00:00,
2013-03-15 12:04:00,54.7,21.4,30.06,East,95,0.0,6.0,27,0.00,,---,0.00,VWS V14.01,2013-03-15 16:04:00,
2013-03-15 12:05:00,55.0,22.5,30.06,ENE,65,0.0,6.0,28,0.00,,---,0.00,VWS V14.01,2013-03-15 16:05:00,
2013-03-15 12:09:00,55.3,21.9,30.06,West,265,0.0,0.0,27,0.00,,---,0.00,VWS V14.01,2013-03-15 16:09:00,
2013-03-15 12:10:00,55.1,21.7,30.06,North,1,0.0,6.0,27,0.00,,---,0.00,VWS V14.01,2013-03-15 16:10:00,
2013-03-15 12:14:00,55.0,22.5,30.06,North,0,0.0,3.0,28,0.00,,---,0.00,VWS V14.01,2013-03-15 16:14:00,
2013-03-15 12:15:00,55.3,21.9,30.05,South,169,2.0,5.0,27,0.00,,---,0.00,VWS V14.01,2013-03-15 16:15:00,
2013-03-15 12:19:00,55.6,23.0,30.05,South,176,0.0,2.0,28,0.00,,---,0.00,VWS V14.01,2013-03-15 16:19:00,
2013-03-15 12:20:00,55.9,22.4,30.05,South,182,1.0,12.0,27,0.00,,---,0.00,VWS V14.01,2013-03-15 16:20:00,
2013-03-15 12:24:00,56.2,23.5,30.05,ENE,65,3.0,4.0,28,0.00,,---,0.00,VWS V14.01,2013-03-15 16:24:00,
2013-03-15 12:25:00,56.6,23.0,30.05,NE,38,0.0,4.0,27,0.00,,---,0.00,VWS V14.01,2013-03-15 16:25:00,
2013-03-15 12:29:00,56.9,23.3,30.05,ESE,121,0.0,2.0,27,0.00,,---,0.00,VWS V14.01,2013-03-15 16:29:00,
2013-03-15 12:30:00,57.0,22.5,30.04,SE,138,0.0,3.0,26,0.00,,---,0.00,VWS V14.01,2013-03-15 16:30:00,
2013-03-15 12:34:00,57.3,23.6,30.04,ESE,110,0.0,4.0,27,0.00,,---,0.00,VWS V14.01,2013-03-15 16:34:00,
2013-03-15 12:35:00,57.3,22.7,30.04,ENE,59,0.0,4.0,26,0.00,,---,0.00,VWS V14.01,2013-03-15 16:35:00,
2013-03-15 12:39:00,57.5,23.8,30.04,NE,54,0.0,0.0,27,0.00,,---,0.00,VWS V14.01,2013-03-15 16:39:00,
2013-03-15 12:40:00,57.5,23.8,30.04,SW,215,0.0,1.0,27,0.00,,---,0.00,VWS V14.01,2013-03-15 16:40:00,
2013-03-15 12:44:00,57.3,22.7,30.04,South,172,0.0,3.0,26,0.00,,---,0.00,VWS V14.01,2013-03-15 16:44:00,
2013-03-15 12:45:00,57.3,23.6,30.03,SW,220,0.0,4.0,27,0.00,,---,0.00,VWS V14.01,2013-03-15 16:45:00,
2013-03-15 12:49:00,57.2,23.5,30.03,South,172,0.0,3.0,27,0.00,,---,0.00,VWS V14.01,2013-03-15 16:49:00,
2013-03-15 12:50:00,57.3,23.6,30.03,SSW,203,0.0,7.0,27,0.00,,---,0.00,VWS V14.01,2013-03-15 16:50:00,
2013-03-15 12:54:00,57.8,24.1,30.03,SSW,209,6.0,6.0,27,0.00,,---,0.00,VWS V14.01,2013-03-15 16:54:00,
2013-03-15 12:55:00,57.8,22.2,30.03,SSW,206,0.0,7.0,25,0.00,,---,0.00,VWS V14.01,2013-03-15 16:55:00,
2013-03-15 12:59:00,58.0,24.2,30.03,SSW,209,0.0,0.0,27,0.00,,---,0.00,VWS V14.01,2013-03-15 16:59:00,
2013-03-15 13:00:00,58.0,25.1,30.03,SE,137,0.0,2.0,28,0.00,,---,0.00,VWS V14.01,2013-03-15 17:00:00,
2013-03-15 13:04:00,58.3,25.4,30.03,ESE,106,0.0,5.0,28,0.00,,---,0.00,VWS V14.01,2013-03-15 17:04:00,
2013-03-15 13:05:00,58.4,24.6,30.03,ESE,112,0.0,5.0,27,0.00,,---,0.00,VWS V14.01,2013-03-15 17:05:00,
2013-03-15 13:09:00,58.6,24.8,30.03,SSE,160,0.0,3.0,27,0.00,,---,0.00,VWS V14.01,2013-03-15 17:09:00,
2013-03-15 13:10:00,58.7,23.9,30.03,East,86,6.0,6.0,26,0.00,,---,0.00,VWS V14.01,2013-03-15 17:10:00,
2013-03-15 13:14:00,58.9,24.1,30.03,SSW,196,0.0,7.0,26,0.00,,---,0.00,VWS V14.01,2013-03-15 17:14:00,
2013-03-15 13:15:00,58.9,25.0,30.02,SSE,157,3.0,8.0,27,0.00,,---,0.00,VWS V14.01,2013-03-15 17:15:00,
2013-03-15 13:19:00,58.9,25.0,30.02,SSW,199,1.0,5.0,27,0.00,,---,0.00,VWS V14.01,2013-03-15 17:19:00,
2013-03-15 13:20:00,59.0,25.1,30.02,SSE,150,5.0,5.0,27,0.00,,---,0.00,VWS V14.01,2013-03-15 17:20:00,
2013-03-15 13:24:00,58.9,25.0,30.02,SW,224,2.0,13.0,27,0.00,,---,0.00,VWS V14.01,2013-03-15 17:24:00,
2013-03-15 13:25:00,59.0,26.0,30.02,East,97,0.0,13.0,28,0.00,,---,0.00,VWS V14.01,2013-03-15 17:25:00,
2013-03-15 13:29:00,59.5,26.4,30.02,NNE,30,0.0,0.0,28,0.00,,---,0.00,VWS V14.01,2013-03-15 17:29:00,
2013-03-15 13:30:00,59.9,25.9,30.01,NNE,30,0.0,0.0,27,0.00,,---,0.00,VWS V14.01,2013-03-15 17:30:00,
2013-03-15 13:34:00,60.2,25.2,30.01,East,92,0.0,7.0,26,0.00,,---,0.00,VWS V14.01,2013-03-15 17:34:00,
2013-03-15 13:35:00,60.5,26.4,30.01,NNE,28,0.0,7.0,27,0.00,,---,0.00,VWS V14.01,2013-03-15 17:35:00,
2013-03-15 13:39:00,60.9,24.9,30.01,SE,130,0.0,1.0,25,0.00,,---,0.00,VWS V14.01,2013-03-15 17:39:00,
2013-03-15 13:40:00,60.7,24.7,30.01,North,359,0.0,8.0,25,0.00,,---,0.00,VWS V14.01,2013-03-15 17:40:00,
2013-03-15 13:44:00,60.4,24.4,30.01,SSW,203,3.0,8.0,25,0.00,,---,0.00,VWS V14.01,2013-03-15 17:44:00,
2013-03-15 13:45:00,59.6,26.5,30.00,SSW,210,0.0,8.0,28,0.00,,---,0.00,VWS V14.01,2013-03-15 17:45:00,
2013-03-15 13:49:00,59.6,24.7,30.00,WNW,282,0.0,2.0,26,0.00,,---,0.00,VWS V14.01,2013-03-15 17:49:00,
2013-03-15 13:50:00,59.9,25.0,30.00,North,0,3.0,5.0,26,0.00,,---,0.00,VWS V14.01,2013-03-15 17:50:00,
2013-03-15 13:54:00,60.2,26.1,30.00,North,0,0.0,3.0,27,0.00,,---,0.00,VWS V14.01,2013-03-15 17:54:00,
2013-03-15 13:55:00,60.1,25.1,30.00,North,359,0.0,3.0,26,0.00,,---,0.00,VWS V14.01,2013-03-15 17:55:00,
2013-03-15 13:59:00,60.1,25.1,30.00,North,0,0.0,0.0,26,0.00,,---,0.00,VWS V14.01,2013-03-15 17:59:00,
2013-03-15 14:00:00,60.4,26.3,30.00,NNE,20,0.0,0.0,27,0.00,,---,0.00,VWS V14.01,2013-03-15 18:00:00,
2013-03-15 14:04:00,61.0,26.8,30.00,NNE,32,0.0,0.0,27,0.00,,---,0.00,VWS V14.01,2013-03-15 18:04:00,
2013-03-15 14:05:00,61.3,26.1,30.00,West,268,0.0,0.0,26,0.00,,---,0.00,VWS V14.01,2013-03-15 18:05:00,
2013-03-15 14:09:00,61.5,27.2,30.00,SSE,157,0.0,1.0,27,0.00,,---,0.00,VWS V14.01,2013-03-15 18:09:00,
2013-03-15 14:10:00,61.8,26.6,30.00,NE,52,0.0,1.0,26,0.00,,---,0.00,VWS V14.01,2013-03-15 18:10:00,
2013-03-15 14:14:00,62.1,25.9,30.00,NNW,335,0.0,3.0,25,0.00,,---,0.00,VWS V14.01,2013-03-15 18:14:00,
2013-03-15 14:15:00,62.1,25.9,29.98,North,6,0.0,3.0,25,0.00,,---,0.00,VWS V14.01,2013-03-15 18:15:00,
2013-03-15 14:19:00,62.1,25.9,29.98,SSE,160,0.0,3.0,25,0.00,,---,0.00,VWS V14.01,2013-03-15 18:19:00,
2013-03-15 14:20:00,62.1,25.9,29.98,SSE,152,0.0,3.0,25,0.00,,---,0.00,VWS V14.01,2013-03-15 18:20:00,
2013-03-15 14:24:00,62.3,27.0,29.98,SSE,158,0.0,0.0,26,0.00,,---,0.00,VWS V14.01,2013-03-15 18:24:00,
2013-03-15 14:25:00,62.3,27.0,29.98,East,95,0.0,0.0,26,0.00,,---,0.00,VWS V14.01,2013-03-15 18:25:00,
2013-03-15 14:29:00,62.3,27.9,29.98,SE,133,0.0,7.0,27,0.00,,---,0.00,VWS V14.01,2013-03-15 18:29:00,
2013-03-15 14:30:00,62.3,27.9,29.97,NNE,32,0.0,7.0,27,0.00,,---,0.00,VWS V14.01,2013-03-15 18:30:00,
2013-03-15 14:34:00,62.0,26.8,29.97,SW,222,1.0,8.0,26,0.00,,---,0.00,VWS V14.01,2013-03-15 18:34:00,
2013-03-15 14:35:00,61.8,26.6,29.97,South,179,0.0,8.0,26,0.00,,---,0.00,VWS V14.01,2013-03-15 18:35:00,
2013-03-15 14:39:00,62.1,27.8,29.97,SSE,160,5.0,5.0,27,0.00,,---,0.00,VWS V14.01,2013-03-15 18:39:00,
2013-03-15 14:40:00,61.8,26.6,29.97,East,95,0.0,10.0,26,0.00,,---,0.00,VWS V14.01,2013-03-15 18:40:00,
2013-03-15 14:44:00,61.6,26.4,29.97,North,0,0.0,6.0,26,0.00,,---,0.00,VWS V14.01,2013-03-15 18:44:00,
2013-03-15 14:45:00,62.0,28.5,29.96,South,178,0.0,6.0,28,0.00,,---,0.00,VWS V14.01,2013-03-15 18:45:00,
2013-03-15 14:49:00,62.1,27.8,29.96,South,178,0.0,0.0,27,0.00,,---,0.00,VWS V14.01,2013-03-15 18:49:00,
2013-03-15 14:50:00,62.4,28.0,29.96,NNE,14,0.0,0.0,27,0.00,,---,0.00,VWS V14.01,2013-03-15 18:50:00,
2013-03-15 14:54:00,62.7,28.3,29.96,ENE,65,0.0,0.0,27,0.00,,---,0.00,VWS V14.01,2013-03-15 18:54:00,
2013-03-15 14:55:00,63.2,28.7,29.96,SSE,157,0.0,2.0,27,0.00,,---,0.00,VWS V14.01,2013-03-15 18:55:00,
2013-03-15 14:59:00,63.4,27.9,29.96,SW,217,0.0,3.0,26,0.00,,---,0.00,VWS V14.01,2013-03-15 18:59:00,
2013-03-15 15:00:00,63.5,29.0,29.94,SSW,195,0.0,5.0,27,0.00,,---,0.00,VWS V14.01,2013-03-15 19:00:00,
2013-03-15 15:04:00,63.5,29.0,29.94,SSW,208,0.0,5.0,27,0.00,,---,0.00,VWS V14.01,2013-03-15 19:04:00,
2013-03-15 15:05:00,63.2,27.8,29.94,NW,322,0.0,5.0,26,0.00,,---,0.00,VWS V14.01,2013-03-15 19:05:00,
2013-03-15 15:09:00,63.2,27.8,29.94,NNE,31,0.0,0.0,26,0.00,,---,0.00,VWS V14.01,2013-03-15 19:09:00,
2013-03-15 15:10:00,63.2,27.8,29.94,NE,42,0.0,0.0,26,0.00,,---,0.00,VWS V14.01,2013-03-15 19:10:00,
2013-03-15 15:14:00,63.2,27.8,29.94,SSW,195,0.0,6.0,26,0.00,,---,0.00,VWS V14.01,2013-03-15 19:14:00,
2013-03-15 15:15:00,63.4,28.9,29.93,South,188,0.0,6.0,27,0.00,,---,0.00,VWS V14.01,2013-03-15 19:15:00,
2013-03-15 15:19:00,63.5,29.0,29.93,South,184,0.0,2.0,27,0.00,,---,0.00,VWS V14.01,2013-03-15 19:19:00,
2013-03-15 15:20:00,63.7,28.2,29.93,South,178,10.0,10.0,26,0.00,,---,0.00,VWS V14.01,2013-03-15 19:20:00,
2013-03-15 15:24:00,63.7,29.1,29.93,NNW,339,0.0,11.0,27,0.00,,---,0.00,VWS V14.01,2013-03-15 19:24:00,
2013-03-15 15:25:00,63.7,29.1,29.93,SW,224,3.0,11.0,27,0.00,,---,0.00,VWS V14.01,2013-03-15 19:25:00,
2013-03-15 15:29:00,63.7,28.2,29.93,SSW,209,0.0,3.0,26,0.00,,---,0.00,VWS V14.01,2013-03-15 19:29:00,
2013-03-15 15:30:00,63.5,27.1,29.92,South,175,0.0,9.0,25,0.00,,---,0.00,VWS V14.01,2013-03-15 19:30:00,
2013-03-15 15:34:00,63.7,28.2,29.92,North,0,0.0,0.0,26,0.00,,---,0.00,VWS V14.01,2013-03-15 19:34:00,
2013-03-15 15:35:00,63.7,28.2,29.92,WSW,256,0.0,0.0,26,0.00,,---,0.00,VWS V14.01,2013-03-15 19:35:00,
2013-03-15 15:39:00,64.0,29.4,29.92,ESE,116,2.0,2.0,27,0.00,,---,0.00,VWS V14.01,2013-03-15 19:39:00,
2013-03-15 15:40:00,64.0,28.5,29.92,ESE,114,0.0,2.0,26,0.00,,---,0.00,VWS V14.01,2013-03-15 19:40:00,
2013-03-15 15:44:00,63.9,28.4,29.92,South,179,0.0,6.0,26,0.00,,---,0.00,VWS V14.01,2013-03-15 19:44:00,
2013-03-15 15:45:00,63.2,28.7,29.91,East,95,0.0,6.0,27,0.00,,---,0.00,VWS V14.01,2013-03-15 19:45:00,
2013-03-15 15:49:00,63.2,28.7,29.91,NNE,23,0.0,0.0,27,0.00,,---,0.00,VWS V14.01,2013-03-15 19:49:00,
2013-03-15 15:50:00,63.1,28.6,29.91,SSW,212,0.0,1.0,27,0.00,,---,0.00,VWS V14.01,2013-03-15 19:50:00,
2013-03-15 15:54:00,63.1,28.6,29.91,NNW,333,0.0,0.0,27,0.00,,---,0.00,VWS V14.01,2013-03-15 19:54:00,
2013-03-15 15:55:00,63.1,27.7,29.91,SSE,162,1.0,8.0,26,0.00,,---,0.00,VWS V14.01,2013-03-15 19:55:00,
2013-03-15 15:59:00,63.2,26.8,29.91,SSW,206,0.0,6.0,25,0.00,,---,0.00,VWS V14.01,2013-03-15 19:59:00,
2013-03-15 16:00:00,63.2,27.8,29.91,ESE,119,0.0,6.0,26,0.00,,---,0.00,VWS V14.01,2013-03-15 20:00:00,
2013-03-15 16:04:00,63.1,27.7,29.91,SE,138,1.0,1.0,26,0.00,,---,0.00,VWS V14.01,2013-03-15 20:04:00,
2013-03-15 16:05:00,63.1,27.7,29.91,NE,55,0.0,3.0,26,0.00,,---,0.00,VWS V14.01,2013-03-15 20:05:00,
2013-03-15 16:09:00,63.1,28.6,29.91,East,80,0.0,0.0,27,0.00,,---,0.00,VWS V14.01,2013-03-15 20:09:00,
2013-03-15 16:10:00,63.2,27.8,29.91,SSE,148,2.0,8.0,26,0.00,,---,0.00,VWS V14.01,2013-03-15 20:10:00,
2013-03-15 16:14:00,63.2,27.8,29.91,SW,227,0.0,12.0,26,0.00,,---,0.00,VWS V14.01,2013-03-15 20:14:00,
2013-03-15 16:15:00,63.2,28.7,29.91,SE,138,1.0,12.0,27,0.00,,---,0.00,VWS V14.01,2013-03-15 20:15:00,
2013-03-15 16:19:00,62.9,28.4,29.91,WSW,239,0.0,13.0,27,0.00,,---,0.00,VWS V14.01,2013-03-15 20:19:00,
2013-03-15 16:20:00,62.6,28.2,29.91,NE,41,0.0,13.0,27,0.00,,---,0.00,VWS V14.01,2013-03-15 20:20:00,
2013-03-15 16:24:00,62.3,28.8,29.91,SSE,154,0.0,3.0,28,0.00,,---,0.00,VWS V14.01,2013-03-15 20:24:00,
2013-03-15 16:25:00,62.0,28.5,29.91,NE,49,0.0,3.0,28,0.00,,---,0.00,VWS V14.01,2013-03-15 20:25:00,
2013-03-15 16:28:00,62.0,28.5,29.91,SW,215,0.0,2.0,28,0.00,,---,0.00,VWS V14.01,2013-03-15 20:28:00,
2013-03-15 16:30:00,61.8,27.5,29.90,South,179,0.0,2.0,27,0.00,,---,0.00,VWS V14.01,2013-03-15 20:30:00,
2013-03-15 16:33:00,61.6,28.2,29.90,NE,55,0.0,2.0,28,0.00,,---,0.00,VWS V14.01,2013-03-15 20:33:00,
2013-03-15 16:35:00,61.6,27.3,29.90,West,263,0.0,2.0,27,0.00,,---,0.00,VWS V14.01,2013-03-15 20:35:00,
2013-03-15 16:38:00,61.5,28.1,29.90,SSW,202,0.0,1.0,28,0.00,,---,0.00,VWS V14.01,2013-03-15 20:38:00,
2013-03-15 16:40:00,61.3,27.9,29.90,SW,216,1.0,3.0,28,0.00,,---,0.00,VWS V14.01,2013-03-15 20:40:00,
2013-03-15 16:43:00,61.2,28.7,29.90,SW,217,0.0,1.0,29,0.00,,---,0.00,VWS V14.01,2013-03-15 20:43:00,
2013-03-15 16:45:00,61.2,30.4,29.89,SW,217,0.0,1.0,31,0.00,,---,0.00,VWS V14.01,2013-03-15 20:45:00,
2013-03-15 16:48:00,61.2,29.5,29.89,WSW,256,0.0,0.0,30,0.00,,---,0.00,VWS V14.01,2013-03-15 20:48:00,
2013-03-15 16:50:00,61.2,28.7,29.89,WSW,257,0.0,0.0,29,0.00,,---,0.00,VWS V14.01,2013-03-15 20:50:00,
2013-03-15 16:53:00,61.0,27.7,29.89,South,191,0.0,2.0,28,0.00,,---,0.00,VWS V14.01,2013-03-15 20:53:00,
2013-03-15 16:55:00,61.0,28.5,29.89,ESE,113,0.0,8.0,29,0.00,,---,0.00,VWS V14.01,2013-03-15 20:55:00,
2013-03-15 16:58:00,60.9,28.5,29.89,ESE,114,0.0,2.0,29,0.00,,---,0.00,VWS V14.01,2013-03-15 20:58:00,
2013-03-15 17:00:00,60.9,28.5,29.89,SE,136,0.0,2.0,29,0.00,,---,0.00,VWS V14.01,2013-03-15 21:00:00,
2013-03-15 17:03:00,60.9,30.1,29.89,SSE,160,0.0,3.0,31,0.00,,---,0.00,VWS V14.01,2013-03-15 21:03:00,
2013-03-15 17:05:00,60.7,29.1,29.89,East,90,1.0,3.0,30,0.00,,---,0.00,VWS V14.01,2013-03-15 21:05:00,
2013-03-15 17:08:00,60.7,29.9,29.89,NNW,332,0.0,1.0,31,0.00,,---,0.00,VWS V14.01,2013-03-15 21:08:00,
2013-03-15 17:10:00,60.7,29.1,29.89,WSW,237,0.0,5.0,30,0.00,,---,0.00,VWS V14.01,2013-03-15 21:10:00,
2013-03-15 17:13:00,60.7,29.9,29.89,South,176,0.0,1.0,31,0.00,,---,0.00,VWS V14.01,2013-03-15 21:13:00,
2013-03-15 17:15:00,60.7,29.1,29.88,South,175,0.0,1.0,30,0.00,,---,0.00,VWS V14.01,2013-03-15 21:15:00,
2013-03-15 17:18:00,60.7,30.7,29.88,SW,222,0.0,3.0,32,0.00,,---,0.00,VWS V14.01,2013-03-15 21:18:00,
2013-03-15 17:20:00,60.7,29.9,29.88,ESE,106,0.0,3.0,31,0.00,,---,0.00,VWS V14.01,2013-03-15 21:20:00,
2013-03-15 17:23:00,60.7,29.9,29.88,South,178,0.0,0.0,31,0.00,,---,0.00,VWS V14.01,2013-03-15 21:23:00,
2013-03-15 17:25:00,60.7,29.1,29.88,South,176,0.0,3.0,30,0.00,,---,0.00,VWS V14.01,2013-03-15 21:25:00,
2013-03-15 17:28:00,60.7,29.9,29.88,South,176,0.0,0.0,31,0.00,,---,0.00,VWS V14.01,2013-03-15 21:28:00,
2013-03-15 17:30:00,60.7,29.9,29.88,ESE,113,0.0,0.0,31,0.00,,---,0.00,VWS V14.01,2013-03-15 21:30:00,
2013-03-15 17:33:00,60.7,29.1,29.88,SSW,195,0.0,2.0,30,0.00,,---,0.00,VWS V14.01,2013-03-15 21:33:00,
2013-03-15 17:35:00,60.7,29.1,29.88,ESE,121,5.0,5.0,30,0.00,,---,0.00,VWS V14.01,2013-03-15 21:35:00,
2013-03-15 17:38:00,60.7,29.1,29.88,SW,226,0.0,5.0,30,0.00,,---,0.00,VWS V14.01,2013-03-15 21:38:00,
2013-03-15 17:40:00,60.7,29.1,29.88,SW,226,0.0,5.0,30,0.00,,---,0.00,VWS V14.01,2013-03-15 21:40:00,
2013-03-15 17:43:00,60.7,29.1,29.88,South,184,0.0,0.0,30,0.00,,---,0.00,VWS V14.01,2013-03-15 21:43:00,
2013-03-15 17:45:00,60.4,28.9,29.88,South,188,2.0,2.0,30,0.00,,---,0.00,VWS V14.01,2013-03-15 21:45:00,
2013-03-15 17:53:00,60.1,27.8,29.88,SSW,200,0.0,0.0,29,0.00,,---,0.00,VWS V14.01,2013-03-15 21:53:00,
2013-03-15 17:58:00,60.1,29.4,29.88,SW,215,0.0,2.0,31,0.00,,---,0.00,VWS V14.01,2013-03-15 21:58:00,
2013-03-15 18:03:00,59.8,29.1,29.88,SSW,213,0.0,2.0,31,0.00,,---,0.00,VWS V14.01,2013-03-15 22:03:00,
2013-03-15 18:08:00,59.8,29.9,29.88,South,186,0.0,0.0,32,0.00,,---,0.00,VWS V14.01,2013-03-15 22:08:00,
2013-03-15 18:13:00,59.6,29.0,29.88,East,96,0.0,0.0,31,0.00,,---,0.00,VWS V14.01,2013-03-15 22:13:00,
2013-03-15 18:18:00,59.6,29.7,29.88,East,92,0.0,0.0,32,0.00,,---,0.00,VWS V14.01,2013-03-15 22:18:00,
2013-03-15 18:23:00,59.6,29.7,29.88,ESE,110,0.0,0.0,32,0.00,,---,0.00,VWS V14.01,2013-03-15 22:23:00,
2013-03-15 18:28:00,59.5,29.6,29.88,South,191,0.0,0.0,32,0.00,,---,0.00,VWS V14.01,2013-03-15 22:28:00,
2013-03-15 18:33:00,59.5,29.6,29.88,SSW,198,0.0,0.0,32,0.00,,---,0.00,VWS V14.01,2013-03-15 22:33:00,
2013-03-15 18:38:00,59.5,31.1,29.88,SSE,164,0.0,0.0,34,0.00,,---,0.00,VWS V14.01,2013-03-15 22:38:00,
2013-03-15 18:43:00,59.5,31.1,29.88,SSE,162,0.0,0.0,34,0.00,,---,0.00,VWS V14.01,2013-03-15 22:43:00,
2013-03-15 18:48:00,59.2,31.6,29.88,SSE,155,0.0,0.0,35,0.00,,---,0.00,VWS V14.01,2013-03-15 22:48:00,
2013-03-15 18:53:00,59.0,30.7,29.88,SSW,195,0.0,1.0,34,0.00,,---,0.00,VWS V14.01,2013-03-15 22:53:00,
2013-03-15 18:58:00,59.0,31.4,29.88,SE,136,0.0,0.0,35,0.00,,---,0.00,VWS V14.01,2013-03-15 22:58:00,
2013-03-15 19:03:00,58.7,31.8,29.87,SSE,155,0.0,0.0,36,0.00,,---,0.00,VWS V14.01,2013-03-15 23:03:00,
2013-03-15 19:08:00,58.4,32.2,29.87,ESE,106,2.0,2.0,37,0.00,,---,0.00,VWS V14.01,2013-03-15 23:08:00,
2013-03-15 19:13:00,58.3,31.5,29.87,SSE,167,0.0,0.0,36,0.00,,---,0.00,VWS V14.01,2013-03-15 23:13:00,
2013-03-15 19:18:00,58.3,32.2,29.87,SSW,196,0.0,0.0,37,0.00,,---,0.00,VWS V14.01,2013-03-15 23:18:00,
2013-03-15 19:23:00,58.0,32.6,29.87,SSW,192,0.0,0.0,38,0.00,,---,0.00,VWS V14.01,2013-03-15 23:23:00,
2013-03-15 19:28:00,57.6,33.5,29.87,SSW,192,0.0,0.0,40,0.00,,---,0.00,VWS V14.01,2013-03-15 23:28:00,
2013-03-15 19:33:00,57.2,32.5,29.88,South,191,0.0,0.0,39,0.00,,---,0.00,VWS V14.01,2013-03-15 23:33:00,
2013-03-15 19:38:00,56.9,32.2,29.88,SE,134,0.0,0.0,39,0.00,,---,0.00,VWS V14.01,2013-03-15 23:38:00,
2013-03-15 19:43:00,56.6,33.8,29.88,SE,134,0.0,0.0,42,0.00,,---,0.00,VWS V14.01,2013-03-15 23:43:00,
2013-03-15 19:48:00,56.3,32.9,29.88,SE,134,0.0,0.0,41,0.00,,---,0.00,VWS V14.01,2013-03-15 23:48:00,
2013-03-15 19:53:00,56.0,33.8,29.88,SE,134,0.0,0.0,43,0.00,,---,0.00,VWS V14.01,2013-03-15 23:53:00,
2013-03-15 19:58:00,55.7,34.1,29.88,SE,134,0.0,0.0,44,0.00,,---,0.00,VWS V14.01,2013-03-15 23:58:00,
2013-03-15 20:03:00,55.3,33.8,29.88,SE,134,0.0,0.0,44,0.00,,---,0.00,VWS V14.01,2013-03-16 00:03:00,
2013-03-15 20:08:00,55.0,34.6,29.88,SE,134,0.0,0.0,46,0.00,,---,0.00,VWS V14.01,2013-03-16 00:08:00,
2013-03-15 20:13:00,54.7,34.3,29.88,SE,134,0.0,0.0,46,0.00,,---,0.00,VWS V14.01,2013-03-16 00:13:00,
2013-03-15 20:18:00,54.4,34.6,29.87,SE,134,0.0,0.0,47,0.00,,---,0.00,VWS V14.01,2013-03-16 00:18:00,
2013-03-15 20:23:00,54.1,33.8,29.87,SE,134,0.0,0.0,46,0.00,,---,0.00,VWS V14.01,2013-03-16 00:23:00,
2013-03-15 20:28:00,53.9,33.6,29.87,SE,134,0.0,0.0,46,0.00,,---,0.00,VWS V14.01,2013-03-16 00:28:00,
2013-03-15 20:33:00,53.8,33.5,29.87,SSE,167,0.0,0.0,46,0.00,,---,0.00,VWS V14.01,2013-03-16 00:33:00,
2013-03-15 20:38:00,53.6,33.9,29.87,SSE,165,0.0,0.0,47,0.00,,---,0.00,VWS V14.01,2013-03-16 00:38:00,
2013-03-15 20:43:00,53.5,33.2,29.87,SSE,165,0.0,0.0,46,0.00,,---,0.00,VWS V14.01,2013-03-16 00:43:00,
2013-03-15 20:48:00,53.2,34.0,29.87,SSE,165,0.0,0.0,48,0.00,,---,0.00,VWS V14.01,2013-03-16 00:48:00,
2013-03-15 20:53:00,53.2,33.0,29.87,SSE,165,0.0,0.0,46,0.00,,---,0.00,VWS V14.01,2013-03-16 00:53:00,
2013-03-15 20:58:00,53.2,33.5,29.87,SSW,208,0.0,0.0,47,0.00,,---,0.00,VWS V14.01,2013-03-16 00:58:00,
2013-03-15 21:03:00,53.3,32.5,29.87,South,189,0.0,0.0,45,0.00,,---,0.00,VWS V14.01,2013-03-16 01:03:00,
2013-03-15 21:08:00,53.5,33.2,29.87,South,171,0.0,0.0,46,0.00,,---,0.00,VWS V14.01,2013-03-16 01:08:00,
2013-03-15 21:13:00,53.6,32.2,29.87,SSW,206,0.0,0.0,44,0.00,,---,0.00,VWS V14.01,2013-03-16 01:13:00,
2013-03-15 21:18:00,53.8,32.4,29.86,SSW,206,0.0,0.0,44,0.00,,---,0.00,VWS V14.01,2013-03-16 01:18:00,
2013-03-15 21:23:00,53.8,33.0,29.86,SSW,213,0.0,0.0,45,0.00,,---,0.00,VWS V14.01,2013-03-16 01:23:00,
2013-03-15 21:28:00,53.8,32.4,29.86,SW,215,0.0,0.0,44,0.00,,---,0.00,VWS V14.01,2013-03-16 01:28:00,
2013-03-15 21:33:00,53.6,32.8,29.87,SSW,203,0.0,1.0,45,0.00,,---,0.00,VWS V14.01,2013-03-16 01:33:00,
2013-03-15 21:38:00,53.6,32.8,29.87,South,181,0.0,0.0,45,0.00,,---,0.00,VWS V14.01,2013-03-16 01:38:00,
2013-03-15 21:43:00,53.5,33.2,29.87,South,179,0.0,0.0,46,0.00,,---,0.00,VWS V14.01,2013-03-16 01:43:00,
2013-03-15 21:48:00,53.5,32.7,29.86,SSE,151,0.0,0.0,45,0.00,,---,0.00,VWS V14.01,2013-03-16 01:48:00,
2013-03-15 21:53:00,53.5,32.7,29.86,SSW,213,0.0,0.0,45,0.00,,---,0.00,VWS V14.01,2013-03-16 01:53:00,
2013-03-15 21:58:00,53.5,32.7,29.86,SW,217,0.0,0.0,45,0.00,,---,0.00,VWS V14.01,2013-03-16 01:58:00,
2013-03-15 22:03:00,53.5,32.7,29.86,SSW,206,0.0,0.0,45,0.00,,---,0.00,VWS V14.01,2013-03-16 02:03:00,
2013-03-15 22:08:00,53.5,32.1,29.86,SSW,209,0.0,2.0,44,0.00,,---,0.00,VWS V14.01,2013-03-16 02:08:00,
2013-03-15 22:13:00,53.5,32.7,29.86,South,171,0.0,0.0,45,0.00,,---,0.00,VWS V14.01,2013-03-16 02:13:00,
2013-03-15 22:18:00,53.5,32.7,29.86,South,174,0.0,0.0,45,0.00,,---,0.00,VWS V14.01,2013-03-16 02:18:00,
2013-03-15 22:23:00,53.5,32.1,29.86,South,174,0.0,0.0,44,0.00,,---,0.00,VWS V14.01,2013-03-16 02:23:00,
2013-03-15 22:28:00,53.5,32.1,29.86,SSW,209,0.0,0.0,44,0.00,,---,0.00,VWS V14.01,2013-03-16 02:28:00,
2013-03-15 22:33:00,53.8,32.4,29.86,SSW,193,0.0,1.0,44,0.00,,---,0.00,VWS V14.01,2013-03-16 02:33:00,
2013-03-15 22:38:00,53.6,33.3,29.86,SSW,193,0.0,0.0,46,0.00,,---,0.00,VWS V14.01,2013-03-16 02:38:00,
2013-03-15 22:43:00,53.6,32.8,29.86,South,188,0.0,0.0,45,0.00,,---,0.00,VWS V14.01,2013-03-16 02:43:00,
2013-03-15 22:48:00,53.6,32.2,29.86,SSW,209,0.0,0.0,44,0.00,,---,0.00,VWS V14.01,2013-03-16 02:48:00,
2013-03-15 22:53:00,53.6,32.2,29.86,SE,141,0.0,2.0,44,0.00,,---,0.00,VWS V14.01,2013-03-16 02:53:00,
2013-03-15 22:58:00,53.9,32.5,29.86,SSW,193,0.0,0.0,44,0.00,,---,0.00,VWS V14.01,2013-03-16 02:58:00,
2013-03-15 23:03:00,54.1,32.7,29.85,South,186,0.0,0.0,44,0.00,,---,0.00,VWS V14.01,2013-03-16 03:03:00,
2013-03-15 23:08:00,54.1,32.1,29.85,SSW,208,0.0,1.0,43,0.00,,---,0.00,VWS V14.01,2013-03-16 03:08:00,
2013-03-15 23:13:00,54.2,32.2,29.85,SSW,208,0.0,0.0,43,0.00,,---,0.00,VWS V14.01,2013-03-16 03:13:00,
2013-03-15 23:18:00,54.2,32.2,29.85,South,174,1.0,3.0,43,0.00,,---,0.00,VWS V14.01,2013-03-16 03:18:00,
2013-03-15 23:23:00,54.4,32.4,29.85,SSW,192,0.0,0.0,43,0.00,,---,0.00,VWS V14.01,2013-03-16 03:23:00,
2013-03-15 23:28:00,54.5,31.9,29.85,SSW,196,0.0,3.0,42,0.00,,---,0.00,VWS V14.01,2013-03-16 03:28:00,
2013-03-15 23:33:00,54.8,32.2,29.85,South,171,0.0,4.0,42,0.00,,---,0.00,VWS V14.01,2013-03-16 03:33:00,
2013-03-15 23:38:00,54.8,32.2,29.85,WNW,285,0.0,2.0,42,0.00,,---,0.00,VWS V14.01,2013-03-16 03:38:00,
2013-03-15 23:43:00,54.8,32.2,29.85,WSW,239,0.0,3.0,42,0.00,,---,0.00,VWS V14.01,2013-03-16 03:43:00,
2013-03-15 23:48:00,54.8,32.2,29.84,WSW,244,0.0,5.0,42,0.00,,---,0.00,VWS V14.01,2013-03-16 03:48:00,
2013-03-15 23:53:00,54.8,32.8,29.84,SSW,213,0.0,0.0,43,0.00,,---,0.00,VWS V14.01,2013-03-16 03:53:00,
2013-03-15 23:58:00,54.8,32.8,29.84,SSW,203,0.0,0.0,43,0.00,,---,0.00,VWS V14.01,2013-03-16 03:58:00,